Live Position
Loading 3D Globe...
About SITRO-AIS-22
Group: 3 satellites
Description loading...
Upcoming Passes
Passes for default location (London). Set your location on the main map for personalized predictions.
Altitude History
Loading altitude history...
No altitude history available
Two-Line Element Set
1 61740U 24199F 26106.89177870 .00001614 00000-0 14992-3 0 9995
2 61740 97.3293 308.8733 0011126 269.1966 90.7982 14.95613915122751
Epoch: Apr 16, 2026 •
Age: 15 hours
Current Status
Altitude 586.2 km
Velocity 7.57 km/s
Sub-Earth Point 23.64°N,
98.75°E
Launch Date Nov 4, 2024
Age 1.4 years
Type other
Technical Details
Classification Payload
Mass 3.00 kg
Dry Mass 3.00 kg
Total Mass 3.00 kg
Length 0.30 m
Diameter 0.10 m
Span 0.30 m
Shape Box
Manufacturer SPUT
Bus Type Cubesat 3U
Phase Status In Orbit
Owner/State SITRO/RU
Most Searched
Loading...